CARTOSAT-2C

Last updated on Wed Sep 17 2025 00:02:31 GMT+0000 (Coordinated Universal Time)

1 41599U 16040A 25259.59255954 .00005533 00000+0 26495-3 0 9990 2 41599 97.4132 318.0065 0010877 10.7372 349.4093 15.19302428512175
UTC large
Height (km)
Speed (km/s)
/
Latitude / Longitude
Inclination (degrees)
Orbital Period (minutes)
Azimuth
Elevation
Range (km)
Doppler Factor

Next 0 passes for location: London (51.5072 / 0.1276)

Sorry there are no passes over London.